This is the latest recevied weather packets stored in our database for station/object AI9F. If no packets are shown the sender has not sent any weather packets the latest 10 day(s).
| Time | Temp. | Humidity | Pressure | Rain* | Wind** | Luminosity | Snow |
|---|---|---|---|---|---|---|---|
| 1778003656 | 12.78° C | 90% | 1009.3 hPa | 0 mm | - | 79 W/m² | - |
| 1778003352 | 12.78° C | 90% | 1009.3 hPa | 0 mm | - | 79 W/m² | - |
| 1778003050 | 12.78° C | 90% | 1009.2 hPa | 0 mm | - | 112 W/m² | - |
| 1778002746 | 12.78° C | 90% | 1009.3 hPa | 0 mm | - | 85 W/m² | - |
| 1778002442 | 12.78° C | 90% | 1009.4 hPa | 0 mm | - | 113 W/m² | - |
| 1778002140 | 12.78° C | 90% | 1009.7 hPa | 0 mm | - | 63 W/m² | - |
| 1778001838 | 12.22° C | 90% | 1009.5 hPa | 0 mm | - | 71 W/m² | - |
| 1778001537 | 12.22° C | 90% | 1009.3 hPa | 0 mm | - | 69 W/m² | - |
| 1778001234 | 12.22° C | 90% | 1009.4 hPa | 0 mm | - | 92 W/m² | - |
| 1778000930 | 12.22° C | 90% | 1009.4 hPa | 0 mm | - | 82 W/m² | - |
| 1778000628 | 12.22° C | 90% | 1009.4 hPa | 0 mm | - | 67 W/m² | - |
| 1778000322 | 12.22° C | 91% | 1009.4 hPa | 0 mm | - | 80 W/m² | - |
| 1778000019 | 12.22° C | 90% | 1009.4 hPa | 0 mm | - | 120 W/m² | - |
| 1777999715 | 12.22° C | 90% | 1009.7 hPa | 0 mm | - | 120 W/m² | - |
| 1777999411 | 12.22° C | 90% | 1009.6 hPa | 0 mm | - | 132 W/m² | - |
| 1777999110 | 12.22° C | 91% | 1009.3 hPa | 0 mm | - | 151 W/m² | - |
| 1777998808 | 11.67° C | 91% | 1009.4 hPa | 0 mm | - | 132 W/m² | - |
| 1777998506 | 11.67° C | 91% | 1009 hPa | 0 mm | - | 106 W/m² | - |
| 1777998202 | 11.67° C | 90% | 1009.2 hPa | 0 mm | - | 146 W/m² | - |
| 1777997899 | 12.22° C | 91% | 1008.8 hPa | 0 mm | - | 138 W/m² | - |
| 1777997596 | 12.22° C | 90% | 1008.8 hPa | 0 mm | - | 127 W/m² | - |
| 1777997294 | 12.22° C | 91% | 1008.8 hPa | 0 mm | - | 138 W/m² | - |
| 1777996992 | 12.22° C | 91% | 1008.5 hPa | 0 mm | - | 358 W/m² | - |
| 1777996688 | 11.67° C | 91% | 1008.6 hPa | 0 mm | - | 281 W/m² | - |
| 1777996383 | 11.67° C | 92% | 1008.6 hPa | 0 mm | - | 263 W/m² | - |
* Rain latest hour (hover to see other rain measurements)
** Current wind speed in m/s (hover to see current wind gust speed)